Preview of NWS' New Version of Forecast
This preview is not operational and should not be used for support decisions.

Regional Weather Roundup (RWR)

Issued by National Weather Service (NWS)

                            
000
ASUS45 KCYS 191210
RWRWY 

WYOMING REGIONAL WEATHER ROUNDUP
NATIONAL WEATHER SERVICE CHEYENNE WY
500 AM MST TUE FEB 19 2019

NOTE:  "FAIR" INDICATES FEW OR NO CLOUDS BELOW 12,000 FEET
WITH NO SIGNIFICANT WEATHER AND/OR OBSTRUCTIONS TO VISIBILITY.

WYZ001-191300-
YELLOWSTONE NATIONAL PARK
  
CITY           SKY/WX    TMP DP  RH WIND       PRES   REMARKS
LK YELLOWSTONE   N/A     -4  -8  83 CALM      29.78F                  
6HR MIN TEMP:  -4; 6HR MAX TEMP:   4;                                

W YELLOWSTONE  NOT AVBL                                               

$$
WYZ002>013-054>058-071-098>099-191300-
NORTHERN WYOMING
  
CITY           SKY/WX    TMP DP  RH WIND       PRES   REMARKS
JACKSON        LGT SNOW   2  -2  83 N6        29.86S FOG     WCI  -9  
CODY           FAIR      -3  -7  82 S7        29.93F WCI -16          
GREYBULL       CLOUDY     5   0  79 E3        30.03F                  
6HR MIN TEMP:   5; 6HR MAX TEMP:   7;                                

WORLAND        CLOUDY     7   2  80 NE5       30.00F WCI  -2          
6HR MIN TEMP:   2; 6HR MAX TEMP:   8;                                

SHERIDAN       FAIR      -9 -14  78 CALM      30.01F                  
6HR MIN TEMP: -10; 6HR MAX TEMP:  -1;                                

BUFFALO        FAIR       0  -5  79 S3        29.91F                  
6HR MIN TEMP:  -2; 6HR MAX TEMP:   2;                                

GILLETTE       CLOUDY     6   1  80 S14       29.99S WCI -11          
6HR MIN TEMP:   0; 6HR MAX TEMP:   6;                                

HULETT         FAIR       1  -4  78 MISG      30.02S                  
NEWCASTLE      FLURRIES   9   3  78 SE7       30.04  WCI  -3          

$$
WYZ014>020-022>026-101>103-191300-
CENTRAL WYOMING
  
CITY           SKY/WX    TMP DP  RH WIND       PRES   REMARKS
BIG PINEY      FAIR     -22 -26  82 N5        29.84F WCI -36          
6HR MIN TEMP: -24; 6HR MAX TEMP: -14;                                

PINEDALE       FAIR     -24 -29  76 E3        29.85                   
DUBOIS         FAIR      -6  -9  84 NW13      29.77  WCI -25          
LANDER         CLOUDY     8  -1  66 W9        29.87F WCI  -5          
6HR MIN TEMP:   8; 6HR MAX TEMP:  13; 6HR PCP: TRACE;                

RIVERTON       CLOUDY     9   4  80 CALM      29.88F                  
6HR MIN TEMP:   9; 6HR MAX TEMP:  10;                                

CASPER         LGT SNOW   6   3  87 CALM      29.90F VSB 1            
6HR MIN TEMP:   0; 6HR MAX TEMP:   6; 6HR PCP:  0.01;                

DOUGLAS        LGT SNOW  11   7  84 SE9       29.94S FOG     WCI  -2  
6HR MIN TEMP:   9; 6HR MAX TEMP:  12; 6HR PCP: TRACE;                


$$
WYZ021-027>030-104>119-191300-
SOUTHERN WYOMING
  
CITY           SKY/WX    TMP DP  RH WIND       PRES   REMARKS
EVANSTON       FAIR     N/A N/A N/A SE6       29.83F                  
KEMMERER       FAIR       0  -6  78 NW8       29.81S WCI -15          
FORT BRIDGER   SUNNY      5   0  78 NE14      29.86F WCI -12          
ROCK SPRINGS   FAIR      -5  -9  83 W6        29.84S WCI -18          
6HR MIN TEMP:  -7; 6HR MAX TEMP:   1;                                

DIXON          LGT SNOW   4  -1  79 CALM      29.87S                  
RAWLINS        CLOUDY     2  -2  83 W7        29.81S WCI -11          
6HR MIN TEMP:   2; 6HR MAX TEMP:  10; 6HR PCP: TRACE;                

SARATOGA       LGT SNOW   5   5 100 CALM      29.81R                  
LARAMIE        FAIR       1  -2  87 S8        29.73R WCI -13          
6HR MIN TEMP:   1; 6HR MAX TEMP:   7; 6HR PCP: TRACE;                

CHEYENNE       LGT SNOW   8   5  87 SE13      29.84F FOG     WCI  -8  
6HR MIN TEMP:   6; 6HR MAX TEMP:   9; 6HR PCP: TRACE;                

TORRINGTON     LGT SNOW  10   8  92 SE14      30.00F WCI  -6          
6HR MIN TEMP:   9; 6HR MAX TEMP:  11; 6HR PCP: TRACE;                

PINE BLUFFS    FLURRIES  12   9  85 S17       29.94S WCI  -5          

$$